weather.gov     
National Weather Service

Regional Weather Roundup
NWS Homepage
This page is being discontinued on March 12, 2014.
The same data is available at this site. Please update your bookmarks.
Thank you, and we apologize for the inconvenience.
Please send an email to SR-SRH.Webmaster@noaa.gov with any concerns.


Current Version
Previous Version:    01  02  03  04  05  06  07  08  09  10  11  12  13  14  15  16  17  18  19  20  21  22  23  24  25  26  27  28  29  30  
   31  32  33  34  35  36  37  38  39  40  41  42  43  44  45  46  47  48  49  50  51  52  53  54  55  56  57  58  59  60  
[Printable]
215
ASUS44 KLIX 200605
RWRLIX
NEW ORLEANS REGIONAL WEATHER ROUNDUP
NATIONAL WEATHER SERVICE NEW ORLEANS LA
100 AM CDT SUN APR 20 2014

NOTE: "FAIR" INDICATES FEW OR NO CLOUDS BELOW 12,000 FEET WITH NO
      SIGNIFICANT WEATHER AND/OR OBSTRUCTIONS TO VISIBILITY.
      SKY/WX - SKY CONDITION AND SIGNIFICANT WEATHER.
      TMP - AIR TEMPERATURE.     DP    - DEWPOINT TEMPERATURE.
      RH  - RELATIVE HUMIDITY.   PRES  - PRESSURE.
      HI  - HEAT INDEX.          WCI   - WIND CHILL INDEX.

*  THESE STATIONS ARE NOT NWS OR FAA STATIONS AND ARE NOT UNDER
   NWS QUALITY CONTROL.

LAZ038-040-048-061>063-065>067-069-200700-
SOUTHEAST LOUISIANA

CITY           SKY/WX    TMP DP  RH WIND       PRES   REMARKS
N.O. AUDUBON     N/A     64  58  81 MISG        N/A
6HR MIN TEMP:  63; 6HR MAX TEMP:  76;

N.O. INTL ARPT   N/A     64  57  78 NE3       30.11S
6HR MIN TEMP:  64; 6HR MAX TEMP:  74;

N.O. LAKEFRONT   N/A     68  59  73 N9        30.11S
6HR MIN TEMP:  67; 6HR MAX TEMP:  71;

N.O. DOWNTOWN*   N/A     70  52  52 CALM      30.11F
6HR MIN TEMP:  70; 6HR MAX TEMP:  77;

SLIDELL          N/A     57  53  86 CALM      30.10F
6HR MIN TEMP:  57; 6HR MAX TEMP:  76;

BATON ROUGE      N/A     59  52  77 CALM      30.12S
6HR MIN TEMP:  59; 6HR MAX TEMP:  76;

BOOTHVILLE       N/A     63  61  93 NW6       30.10F
6HR MIN TEMP:  63; 6HR MAX TEMP:  70;

BELLE CHASSE     N/A     58  54  86 CALM      30.10F
6HR MIN TEMP:  57; 6HR MAX TEMP:  76;

BOGALUSA*        N/A     56  52  86 CALM      30.13F
6HR MIN TEMP:  56; 6HR MAX TEMP:  75;

GALLIANO*        N/A     59  57  93 CALM      30.11S
6HR MIN TEMP:  59; 6HR MAX TEMP:  72;

NEW ROADS*       N/A     60  53  79 CALM      30.13S
6HR MIN TEMP:  60; 6HR MAX TEMP:  75;

GONZALES*        N/A     58  57  97 CALM      30.11S
6HR MIN TEMP:  58; 6HR MAX TEMP:  75;

HAMMOND*         N/A     55  52  88 CALM      30.12F
HOUMA*           N/A     59  57  92 CALM      30.11S
6HR MIN TEMP:  57; 6HR MAX TEMP:  76;

PORT FOURCHON* CLEAR     66  63  88 W5        30.13S

$$

MSZ070-080>082-200700-
SOUTHERN MISSISSIPPI

CITY           SKY/WX    TMP DP  RH WIND       PRES   REMARKS
MCCOMB           N/A     60  51  72 N5        30.12F
6HR MIN TEMP:  58; 6HR MAX TEMP:  75;

GULFPORT         N/A     62  54  74 N3        30.09F
6HR MIN TEMP:  60; 6HR MAX TEMP:  78;

BILOXI           N/A     61  54  79 NE5       30.10S
6HR MIN TEMP:  61; 6HR MAX TEMP:  75;

PASCAGOULA       N/A     55  54  96 CALM      30.10F
6HR MIN TEMP:  54; 6HR MAX TEMP:  74;


$$

COASTAL OBSERVATIONS
LAKE AND NEARSHORE STATIONS

STATION/POSITION TIME  TEMP    WIND        PRES    WAVE
                       AIR SEA DIR/SP/G            HT/PER
                 (UTC) (F)     (DEG/KT/KT) (MB)    (FT/S)
PASCAGOULA       0600   62      30/  5/  7 1018.7
WAVELAND YACHT   0600   65 70  340/  4/  6 1018.4
GRAND ISLE       0600   68 68  300/  7/  8 1019.8
SOUTHWEST PASS   0600   65 58  300/ 11/ 13 1019.5
NEW CANAL        0600   69 67   20/  6/  7 1019.8
SHELL BEACH      0600   69 66  340/  5/  6 1019.1

OFFSHORE STATIONS

STATION/POSITION TIME  TEMP    WIND        PRES    WAVE
                       AIR SEA DIR/SP/G            HT/PER
                 (UTC) (F)     (DEG/KT/KT) (MB)    (FT/S)
64 S DAUPHIN ISL 0542   69 70   80/ 14/ 16 1019.2

$$





U.S. Dept. of Commerce
NOAA National Weather Service
1325 East West Highway
Silver Spring, MD 20910
E-mail: w-nws.webmaster@noaa.gov
Page last modified: May 16, 2007
NATIONAL WEATHER SERVICE: for Safety, for Work, for Fun - FOR LIFE